STARLINK-32496, 62051

Orbit data source: Space-Track

STARLINK-32496, 62051 is a payload satellite owned by SpaceX/Seattle (US) in LEO that was launched on Thu, 21 Nov 2024 UTC via an FALCON 9 launch vehicle from the Air Force Eastern Test Range (AFETR). Payload-class satellites include a variety of spacecraft equipped with specific instruments for various scientific and technological missions. These include communications satellites like Starlink; space stations such as the ISS; scientific satellites like the Hubble; Earth observation satellites from companies like Planet Labs, Umbra, and HawkEye 360; GPS; miniature CubeSats for education and research; and military/defense satellites.

Loading next visibility...
Identifier
62051, 2024-216V
Orbit
LEO
Country
Flag of USUS
Related business
Manufacturer
SpaceX/Seattle
Mission
Operational Commercial Communications
Bus & Motor
STARLINK V2M, Unknown motor
Mass
730 kg wet, ~700 kg dry
Launch date (UTC)
2024-11-21 (1 year ago)
Launch vehicle
FALCON 9
Launch site
Air Force Eastern Test Range (AFETR)
Object type
Payload
Rocket body
Debris
Shape & HBR
Box + 2 Pan, 17.7 m
Radar Cross Section
33.884 m², Large (>1 m²)

Expand to show TLE details & history
Last TLE update: 21 hours ago

TLE from 21 hours ago
0 STARLINK-32496
1 62051U 24216V   25351.45912697  .00024498  00000-0  89599-3 0  9998
2 62051  43.0019   8.1465 0001905 275.1860  84.8774 15.27609532 61219
Epoch: 2025-12-17T11:01Z
TLE epoch observation values (Epoch: 2025-12-17T11:01:08.570Z)
Latitude
-0.00002°
Longitude
116.53208°
Altitude
482.62 km
Speed
7.626 km/s
True Right ascension
00h 32m 35s
True Declination
0° 00' 00"
Sunlit
Object was in daylight at epoch
Visualization orbit readout
Latitude
Unknown
Longitude
Unknown
Altitude
Unknown
Speed
Unknown
Apparent Right ascension
Unknown
Apparent Declination
Unknown
Sunlit
N/A
Visualization observer readout
Local Sidereal Time
06:21:19
Azimuth
Unknown
Elevation
Unknown
Doppler factor
Unknown
Orbital elements
Apogee altitude
486.213 km
Perigee altitude
483.598 km
Semi-major axis
6,863.043 km
Eccentricity
0.00019
Inclination
43.0019°
RAAN
8.1465°
Arg. of periapsis
275.186°
True anomaly
84.89914°
Mean anomaly
84.8774°
Eccentric anomaly
84.88827°
Mean motion
3.8174 °/min
Orbital period
94.3 mins
BSTAR
0.00089599
Loading maneuver chart data...
Computing Atmospheric mass density...
Loading historical data...
Loading historical data...
Loading historical data...
Loading historical data...
Loading historical data...
Loading historical data...
Loading historical data...

Documentation

Showing up to 5 results
|